Location: Mentone
(34.5413°N, 85.5351°W)
Time: 19:49:01
(UTC-05:00)

ATLAS 5 CENTAUR R/B - Visible Passes

Search period start: 16 April 2014 00:00
Search period end: 26 April 2014 00:00
Orbit: 734 x 930 km, 63.4° (Epoch: 05 April)

Date Brightness Start Highest point End Pass type
(mag) Time Alt. Az. Time Alt. Az. Time Alt. Az.
16 Apr 3.4 19:53:05 10° N 19:58:16 29° NE 20:02:53 13° ESE visible
16 Apr 3.1 21:37:27 10° NW 21:43:11 45° WSW 21:44:29 39° SSW visible
17 Apr 3.5 19:34:39 10° N 19:39:44 28° NE 19:44:56 10° ESE visible
17 Apr 3.1 21:18:55 10° NW 21:24:42 48° WSW 21:27:09 31° SSW visible
18 Apr 3.0 21:00:23 10° NW 21:06:13 51° WSW 21:09:54 23° S visible
19 Apr 3.0 20:41:52 10° NW 20:47:44 54° WSW 20:52:44 15° S visible
20 Apr 2.9 20:23:20 10° NW 20:29:15 57° WSW 20:35:15 10° SSE visible
21 Apr 2.9 20:04:49 10° NW 20:10:45 60° WSW 20:16:48 10° SSE visible
22 Apr 2.9 19:46:17 10° NW 19:52:16 64° WSW 19:58:20 10° SSE visible
